Location: Unspecified
(0.0000°N, 0.0000°E)
Time: 13:47:32
(UTC+00:00)

Vanguard 2 - Pass Details

Date: 16 September 2019
Orbit: 554 x 2937 km, 32.9° (Epoch: 13 October)

Event Time Altitude Azimuth Distance (km) Brightness Sun altitude
Rises 21:19:35 0° 219° (SW) 6,168 12.4 -51.1°
Reaches altitude 10° 21:24:20 10° 209° (SSW) 5,416 11.9 -52.3°
Enters shadow 21:31:48 25° 185° (S) 4,536 11.3 -54.2°
Maximum altitude 21:38:33 31° 152° (SSE) 4,251 - -55.9°
Drops below altitude 10° 21:52:44 10° 97° (E) 5,463 - -59.4°
Sets 21:57:26 0° 87° (E) 6,234 - -60.6°
